Showing default

KOREASAT 6A, 61910

Orbit data source: Space-Track

KOREASAT 6A, 61910 is a payload satellite owned by KT Sat (KR) in GEO that was launched on Mon, 11 Nov 2024 UTC via an FALCON 9 launch vehicle from the Air Force Eastern Test Range (AFETR). Payload-class satellites include a variety of spacecraft equipped with specific instruments for various scientific and technological missions. These include communications satellites like Starlink; space stations such as the ISS; scientific satellites like the Hubble; Earth observation satellites from companies like Planet Labs, Umbra, and HawkEye 360; GPS; miniature CubeSats for education and research; and military/defense satellites.

Not visible in the next 10 days
Identifier
61910, 2024-206A
Orbit
GEO
Country
Flag of KRKR / SKOR
Related business
Manufacturer
Thales Alenia
Mission
Operational Commercial Communications
Bus & Motor
SPACEBUS 4000B2, S400
Mass
~3,500 kg wet, ~2,000 kg dry
Launch date (UTC)
2024-11-11 (2 years ago)
Launch vehicle
FALCON 9
Launch site
Air Force Eastern Test Range (AFETR)
Object type
Payload
Rocket body
Debris
Shape & HBR
Box + 2 Pan, 19.0 m
Radar Cross Section
39.423 m², Large (>1 m²)

Expand to show TLE details & history
Last TLE update: 1 day ago

TLE from 1 day ago
0 KOREASAT 6A
1 61910U 24206A   26170.77339228 -.00000367  00000-0  00000-0 0  9995
2 61910   0.0257  97.0850 0000818 327.3804 237.9476  1.00269362  5862
Epoch: 2026-06-19T18:33Z
TLE epoch observation values (Epoch: 2026-06-19T18:33:41.092Z)
Latitude
-0.02209°
Longitude
115.99898°
Altitude
35,788.612 km
Speed
3.075 km/s
True Right ascension
20h 09m 40s
True Declination
0° 01' 19"
Sunlit
Object was in daylight at epoch
Visualization orbit readout
Latitude
Unknown
Longitude
Unknown
Altitude
Unknown
Speed
Unknown
Apparent Right ascension
Unknown
Apparent Declination
Unknown
Sunlit
N/A
Visualization observer readout
Local Sidereal Time
08:42:30
Azimuth
Unknown
Elevation
Unknown
Doppler factor
Unknown
Orbital elements
Apogee altitude
35,791.794 km
Perigee altitude
35,784.895 km
Semi-major axis
42,166.482 km
Eccentricity
0.00008
Inclination
0.0257°
RAAN
97.085°
Arg. of periapsis
327.3804°
True anomaly
237.93966°
Mean anomaly
237.9476°
Eccentric anomaly
237.94363°
Mean motion
0.25066 °/min
Orbital period
1,436.18 mins
BSTAR
0
Loading maneuver chart data...
Computing Atmospheric mass density...
Loading historical data...
Loading historical data...
Loading historical data...
Loading historical data...
Loading historical data...
Loading historical data...
Loading historical data...
Other satellites on launch #206 in the year 2024 (2024-11-11 UTC)

Documentation

Showing up to 5 results
|